Year,Month,Day,Hour,Minute,Value (Times are PST for temperature in C)
2011,09,02,00,00,11.60
2011,09,02,00,01,11.60
2011,09,02,00,02,11.60
2011,09,02,00,03,11.50
2011,09,02,00,04,11.40
2011,09,02,00,05,11.40
2011,09,02,00,06,11.40
2011,09,02,00,07,11.50
2011,09,02,00,08,11.60
2011,09,02,00,09,11.80
2011,09,02,00,10,12.00
2011,09,02,00,11,12.20
2011,09,02,00,12,12.40
2011,09,02,00,13,12.60
2011,09,02,00,14,12.70
2011,09,02,00,15,12.90
2011,09,02,00,16,13.00
2011,09,02,00,17,13.10
2011,09,02,00,18,13.30
2011,09,02,00,19,13.40
2011,09,02,00,20,13.60
2011,09,02,00,21,13.70
2011,09,02,00,22,13.70
2011,09,02,00,23,13.80
2011,09,02,00,24,13.80
2011,09,02,00,25,13.90
2011,09,02,00,26,13.90
2011,09,02,00,27,13.90
2011,09,02,00,28,13.90
2011,09,02,00,29,13.90
2011,09,02,00,30,13.90
2011,09,02,00,31,13.80
2011,09,02,00,32,13.80
2011,09,02,00,33,13.70
2011,09,02,00,34,13.70
2011,09,02,00,35,13.70
2011,09,02,00,36,13.70
2011,09,02,00,37,13.80
2011,09,02,00,38,13.90
2011,09,02,00,39,13.90
2011,09,02,00,40,13.90
2011,09,02,00,41,14.00
2011,09,02,00,42,14.00
2011,09,02,00,43,14.10
2011,09,02,00,44,14.10
2011,09,02,00,45,14.20
2011,09,02,00,46,14.20
2011,09,02,00,47,14.20
2011,09,02,00,48,14.20
2011,09,02,00,49,14.20
2011,09,02,00,50,14.30
2011,09,02,00,51,14.30
2011,09,02,00,52,14.40
2011,09,02,00,53,14.40
2011,09,02,00,54,14.50
2011,09,02,00,55,14.50
2011,09,02,00,56,14.50
2011,09,02,00,57,14.60
2011,09,02,00,58,14.60
2011,09,02,00,59,14.60
2011,09,02,01,00,14.60
2011,09,02,01,01,14.60
2011,09,02,01,02,14.60
2011,09,02,01,03,14.60
2011,09,02,01,04,14.60
2011,09,02,01,05,14.60
2011,09,02,01,06,14.60
2011,09,02,01,07,14.60
2011,09,02,01,08,14.60
2011,09,02,01,09,14.60
2011,09,02,01,10,14.60
2011,09,02,01,11,14.60
2011,09,02,01,12,14.60
2011,09,02,01,13,14.60
2011,09,02,01,14,14.60
2011,09,02,01,15,14.60
2011,09,02,01,16,14.60
2011,09,02,01,17,14.60
2011,09,02,01,18,14.60
2011,09,02,01,19,14.60
2011,09,02,01,20,14.60
2011,09,02,01,21,14.60
2011,09,02,01,22,14.60
2011,09,02,01,23,14.50
2011,09,02,01,24,14.50
2011,09,02,01,25,14.50
2011,09,02,01,26,14.50
2011,09,02,01,27,14.50
2011,09,02,01,28,14.50
2011,09,02,01,29,14.50
2011,09,02,01,30,14.40
2011,09,02,01,31,14.40
2011,09,02,01,32,14.40
2011,09,02,01,33,14.40
2011,09,02,01,34,14.40
2011,09,02,01,35,14.40
2011,09,02,01,36,14.40
2011,09,02,01,37,14.50
2011,09,02,01,38,14.50
2011,09,02,01,39,14.50
2011,09,02,01,40,14.40
2011,09,02,01,41,14.40
2011,09,02,01,42,14.40
2011,09,02,01,43,14.40
2011,09,02,01,44,14.40
2011,09,02,01,45,14.40
2011,09,02,01,46,14.40
2011,09,02,01,47,14.40
2011,09,02,01,48,14.40
2011,09,02,01,49,14.40
2011,09,02,01,50,14.50
2011,09,02,01,51,14.50
2011,09,02,01,52,14.50
2011,09,02,01,53,14.50
2011,09,02,01,54,14.50
2011,09,02,01,55,14.50
2011,09,02,01,56,14.50
2011,09,02,01,57,14.50
2011,09,02,01,58,14.40
2011,09,02,01,59,14.40
2011,09,02,02,00,14.40
2011,09,02,02,01,14.40
2011,09,02,02,02,14.40
2011,09,02,02,03,14.50
2011,09,02,02,04,14.50
2011,09,02,02,05,14.40
2011,09,02,02,06,14.40
2011,09,02,02,07,14.40
2011,09,02,02,08,14.40
2011,09,02,02,09,14.40
2011,09,02,02,10,14.40
2011,09,02,02,11,14.30
2011,09,02,02,12,14.30
2011,09,02,02,13,14.30
2011,09,02,02,14,14.30
2011,09,02,02,15,14.30
2011,09,02,02,16,14.30
2011,09,02,02,17,14.30
2011,09,02,02,18,14.30
2011,09,02,02,19,14.20
2011,09,02,02,20,14.20
2011,09,02,02,21,14.20
2011,09,02,02,22,14.20
2011,09,02,02,23,14.20
2011,09,02,02,24,14.10
2011,09,02,02,25,14.10
2011,09,02,02,26,14.10
2011,09,02,02,27,14.10
2011,09,02,02,28,14.10
2011,09,02,02,29,14.20
2011,09,02,02,30,14.10
2011,09,02,02,31,14.10
2011,09,02,02,32,14.10
2011,09,02,02,33,14.00
2011,09,02,02,34,14.00
2011,09,02,02,35,14.00
2011,09,02,02,36,13.90
2011,09,02,02,37,14.00
2011,09,02,02,38,14.00
2011,09,02,02,39,14.00
2011,09,02,02,40,14.00
2011,09,02,02,41,14.00
2011,09,02,02,42,14.00
2011,09,02,02,43,14.00
2011,09,02,02,44,13.90
2011,09,02,02,45,13.90
2011,09,02,02,46,13.80
2011,09,02,02,47,13.80
2011,09,02,02,48,13.90
2011,09,02,02,49,13.80
2011,09,02,02,50,13.80
2011,09,02,02,51,13.80
2011,09,02,02,52,13.80
2011,09,02,02,53,13.80
2011,09,02,02,54,13.80
2011,09,02,02,55,13.80
2011,09,02,02,56,13.80
2011,09,02,02,57,13.80
2011,09,02,02,58,13.70
2011,09,02,02,59,13.70
2011,09,02,03,00,13.60
2011,09,02,03,01,13.60
2011,09,02,03,02,13.60
2011,09,02,03,03,13.60
2011,09,02,03,04,13.60
2011,09,02,03,05,13.60
2011,09,02,03,06,13.60
2011,09,02,03,07,13.60
2011,09,02,03,08,13.70
2011,09,02,03,09,13.70
2011,09,02,03,10,13.70
2011,09,02,03,11,13.70
2011,09,02,03,12,13.70
2011,09,02,03,13,13.70
2011,09,02,03,14,13.70
2011,09,02,03,15,13.70
2011,09,02,03,16,13.70
2011,09,02,03,17,13.70
2011,09,02,03,18,13.70
2011,09,02,03,19,13.70
2011,09,02,03,20,13.60
2011,09,02,03,21,13.60
2011,09,02,03,22,13.60
2011,09,02,03,23,13.50
2011,09,02,03,24,13.50
2011,09,02,03,25,13.40
2011,09,02,03,26,13.40
2011,09,02,03,27,13.30
2011,09,02,03,28,13.30
2011,09,02,03,29,13.30
2011,09,02,03,30,13.30
2011,09,02,03,31,13.30
2011,09,02,03,32,13.30
2011,09,02,03,33,13.30
2011,09,02,03,34,13.20
2011,09,02,03,35,13.20
2011,09,02,03,36,13.20
2011,09,02,03,37,13.10
2011,09,02,03,38,13.10
2011,09,02,03,39,13.10
2011,09,02,03,40,13.00
2011,09,02,03,41,13.00
2011,09,02,03,42,13.00
2011,09,02,03,43,13.00
2011,09,02,03,44,13.00
2011,09,02,03,45,13.00
2011,09,02,03,46,12.90
2011,09,02,03,47,12.90
2011,09,02,03,48,12.90
2011,09,02,03,49,12.90
2011,09,02,03,50,12.80
2011,09,02,03,51,12.80
2011,09,02,03,52,12.80
2011,09,02,03,53,12.70
2011,09,02,03,54,12.70
2011,09,02,03,55,12.70
2011,09,02,03,56,12.70
2011,09,02,03,57,12.70
2011,09,02,03,58,12.70
2011,09,02,03,59,12.70
2011,09,02,04,00,12.80
2011,09,02,04,01,12.80
2011,09,02,04,02,12.80
2011,09,02,04,03,12.80
2011,09,02,04,04,12.80
2011,09,02,04,05,12.80
2011,09,02,04,06,12.80
2011,09,02,04,07,12.90
2011,09,02,04,08,12.90
2011,09,02,04,09,12.90
2011,09,02,04,10,13.00
2011,09,02,04,11,13.00
2011,09,02,04,12,13.00
2011,09,02,04,13,13.00
2011,09,02,04,14,13.10
2011,09,02,04,15,13.10
2011,09,02,04,16,13.10
2011,09,02,04,17,13.10
2011,09,02,04,18,13.10
2011,09,02,04,19,13.10
2011,09,02,04,20,13.00
2011,09,02,04,21,13.00
2011,09,02,04,22,13.00
2011,09,02,04,23,13.00
2011,09,02,04,24,13.00
2011,09,02,04,25,13.00
2011,09,02,04,26,13.00
2011,09,02,04,27,12.90
2011,09,02,04,28,12.90
2011,09,02,04,29,12.90
2011,09,02,04,30,12.90
2011,09,02,04,31,12.90
2011,09,02,04,32,12.80
2011,09,02,04,33,12.80
2011,09,02,04,34,12.80
2011,09,02,04,35,12.80
2011,09,02,04,36,12.90
2011,09,02,04,37,12.90
2011,09,02,04,38,12.90
2011,09,02,04,39,12.90
2011,09,02,04,40,12.90
2011,09,02,04,41,12.90
2011,09,02,04,42,12.90
2011,09,02,04,43,12.90
2011,09,02,04,44,12.90
2011,09,02,04,45,12.80
2011,09,02,04,46,12.90
2011,09,02,04,47,12.90
2011,09,02,04,48,12.90
2011,09,02,04,49,12.90
2011,09,02,04,50,12.90
2011,09,02,04,51,12.90
2011,09,02,04,52,12.90
2011,09,02,04,53,12.90
2011,09,02,04,54,12.90
2011,09,02,04,55,12.90
2011,09,02,04,56,12.90
2011,09,02,04,57,12.90
2011,09,02,04,58,12.90
2011,09,02,04,59,12.90
2011,09,02,05,00,13.00
2011,09,02,05,01,13.00
2011,09,02,05,02,13.00
2011,09,02,05,03,13.00
2011,09,02,05,04,12.90
2011,09,02,05,05,12.90
2011,09,02,05,06,12.90
2011,09,02,05,07,12.90
2011,09,02,05,08,12.90
2011,09,02,05,09,12.90
2011,09,02,05,10,13.00
2011,09,02,05,11,13.00
2011,09,02,05,12,13.10
2011,09,02,05,13,13.10
2011,09,02,05,14,13.10
2011,09,02,05,15,13.10
2011,09,02,05,16,13.10
2011,09,02,05,17,13.10
2011,09,02,05,18,13.10
2011,09,02,05,19,13.20
2011,09,02,05,20,13.10
2011,09,02,05,21,13.10
2011,09,02,05,22,13.10
2011,09,02,05,23,13.00
2011,09,02,05,24,12.90
2011,09,02,05,25,12.80
2011,09,02,05,26,12.80
2011,09,02,05,27,12.80
2011,09,02,05,28,12.70
2011,09,02,05,29,12.70
2011,09,02,05,30,12.70
2011,09,02,05,31,12.70
2011,09,02,05,32,12.70
2011,09,02,05,33,12.70
2011,09,02,05,34,12.70
2011,09,02,05,35,12.70
2011,09,02,05,36,12.70
2011,09,02,05,37,12.70
2011,09,02,05,38,12.70
2011,09,02,05,39,12.70
2011,09,02,05,40,12.70
2011,09,02,05,41,12.70
2011,09,02,05,42,12.80
2011,09,02,05,43,12.80
2011,09,02,05,44,12.80
2011,09,02,05,45,12.80
2011,09,02,05,46,12.80
2011,09,02,05,47,12.80
2011,09,02,05,48,12.90
2011,09,02,05,49,12.90
2011,09,02,05,50,12.90
2011,09,02,05,51,13.00
2011,09,02,05,52,13.00
2011,09,02,05,53,13.00
2011,09,02,05,54,13.00
2011,09,02,05,55,13.00
2011,09,02,05,56,13.00
2011,09,02,05,57,13.00
2011,09,02,05,58,13.00
2011,09,02,05,59,13.00
2011,09,02,06,00,13.00
2011,09,02,06,01,13.00
2011,09,02,06,02,13.10
2011,09,02,06,03,13.10
2011,09,02,06,04,13.10
2011,09,02,06,05,13.10
2011,09,02,06,06,13.10
2011,09,02,06,07,13.20
2011,09,02,06,08,13.20
2011,09,02,06,09,13.20
2011,09,02,06,10,13.20
2011,09,02,06,11,13.30
2011,09,02,06,12,13.30
2011,09,02,06,13,13.30
2011,09,02,06,14,13.30
2011,09,02,06,15,13.30
2011,09,02,06,16,13.30
2011,09,02,06,17,13.30
2011,09,02,06,18,13.30
2011,09,02,06,19,13.30
2011,09,02,06,20,13.30
2011,09,02,06,21,13.30
2011,09,02,06,22,13.30
2011,09,02,06,23,13.30
2011,09,02,06,24,13.20
2011,09,02,06,25,13.20
2011,09,02,06,26,13.20
2011,09,02,06,27,13.20
2011,09,02,06,28,13.20
2011,09,02,06,29,13.20
2011,09,02,06,30,13.20
2011,09,02,06,31,13.20
2011,09,02,06,32,13.20
2011,09,02,06,33,13.20
2011,09,02,06,34,13.20
2011,09,02,06,35,13.20
2011,09,02,06,36,13.20
2011,09,02,06,37,13.20
2011,09,02,06,38,13.10
2011,09,02,06,39,13.10
2011,09,02,06,40,13.10
2011,09,02,06,41,13.20
2011,09,02,06,42,13.20
2011,09,02,06,43,13.20
2011,09,02,06,44,13.10
2011,09,02,06,45,13.10
2011,09,02,06,46,13.10
2011,09,02,06,47,13.10
2011,09,02,06,48,13.00
2011,09,02,06,49,13.00
2011,09,02,06,50,13.00
2011,09,02,06,51,13.00
2011,09,02,06,52,13.00
2011,09,02,06,53,13.00
2011,09,02,06,54,13.00
2011,09,02,06,55,13.00
2011,09,02,06,56,13.00
2011,09,02,06,57,13.00
2011,09,02,06,58,13.00
2011,09,02,06,59,13.00
2011,09,02,07,00,12.90
2011,09,02,07,01,12.90
2011,09,02,07,02,12.90
2011,09,02,07,03,12.90
2011,09,02,07,04,12.90
2011,09,02,07,05,12.90
2011,09,02,07,06,12.90
2011,09,02,07,07,12.90
2011,09,02,07,08,12.90
2011,09,02,07,09,13.00
2011,09,02,07,10,13.00
2011,09,02,07,11,13.00
2011,09,02,07,12,13.10
2011,09,02,07,13,13.10
2011,09,02,07,14,13.10
2011,09,02,07,15,13.10
2011,09,02,07,16,13.10
2011,09,02,07,17,13.10
2011,09,02,07,18,13.20
2011,09,02,07,19,13.20
2011,09,02,07,20,13.20
2011,09,02,07,21,13.20
2011,09,02,07,22,13.20
2011,09,02,07,23,13.20
2011,09,02,07,24,13.20
2011,09,02,07,25,13.20
2011,09,02,07,26,13.30
2011,09,02,07,27,13.30
2011,09,02,07,28,13.30
2011,09,02,07,29,13.30
2011,09,02,07,30,13.30
2011,09,02,07,31,13.30
2011,09,02,07,32,13.30
2011,09,02,07,33,13.30
2011,09,02,07,34,13.30
2011,09,02,07,35,13.30
2011,09,02,07,36,13.30
2011,09,02,07,37,13.30
2011,09,02,07,38,13.30
2011,09,02,07,39,13.40
2011,09,02,07,40,13.40
2011,09,02,07,41,13.40
2011,09,02,07,42,13.40
2011,09,02,07,43,13.50
2011,09,02,07,44,13.50
2011,09,02,07,45,13.60
2011,09,02,07,46,13.60
2011,09,02,07,47,13.60
2011,09,02,07,48,13.70
2011,09,02,07,49,13.70
2011,09,02,07,50,13.70
2011,09,02,07,51,13.70
2011,09,02,07,52,13.80
2011,09,02,07,53,13.80
2011,09,02,07,54,13.80
2011,09,02,07,55,13.90
2011,09,02,07,56,13.90
2011,09,02,07,57,13.90
2011,09,02,07,58,14.00
2011,09,02,07,59,14.00
2011,09,02,08,00,14.10
2011,09,02,08,01,14.10
2011,09,02,08,02,14.10
2011,09,02,08,03,14.20
2011,09,02,08,04,14.20
2011,09,02,08,05,14.30
2011,09,02,08,06,14.30
2011,09,02,08,07,14.40
2011,09,02,08,08,14.40
2011,09,02,08,09,14.40
2011,09,02,08,10,14.40
2011,09,02,08,11,14.40
2011,09,02,08,12,14.40
2011,09,02,08,13,14.40
2011,09,02,08,14,14.40
2011,09,02,08,15,14.60
2011,09,02,08,16,14.80
2011,09,02,08,17,14.80
2011,09,02,08,18,14.80
2011,09,02,08,19,14.80
2011,09,02,08,20,14.80
2011,09,02,08,21,14.90
2011,09,02,08,22,14.90
2011,09,02,08,23,15.00
2011,09,02,08,24,15.00
2011,09,02,08,25,15.00
2011,09,02,08,26,15.00
2011,09,02,08,27,15.00
2011,09,02,08,28,14.90
2011,09,02,08,29,14.90
2011,09,02,08,30,14.90
2011,09,02,08,31,14.90
2011,09,02,08,32,14.90
2011,09,02,08,33,14.90
2011,09,02,08,34,15.00
2011,09,02,08,35,15.00
2011,09,02,08,36,15.00
2011,09,02,08,37,15.00
2011,09,02,08,38,15.00
2011,09,02,08,39,15.00
2011,09,02,08,40,15.00
2011,09,02,08,41,15.00
2011,09,02,08,42,15.00
2011,09,02,08,43,15.10
2011,09,02,08,44,15.10
2011,09,02,08,45,15.20
2011,09,02,08,46,15.20
2011,09,02,08,47,15.20
2011,09,02,08,48,15.20
2011,09,02,08,49,15.20
2011,09,02,08,50,15.20
2011,09,02,08,51,15.10
2011,09,02,08,52,15.10
2011,09,02,08,53,15.10
2011,09,02,08,54,15.10
2011,09,02,08,55,15.10
2011,09,02,08,56,15.10
2011,09,02,08,57,15.00
2011,09,02,08,58,15.00
2011,09,02,08,59,15.00
2011,09,02,09,00,15.00
2011,09,02,09,01,15.00
2011,09,02,09,02,15.00
2011,09,02,09,03,15.00
2011,09,02,09,04,15.00
2011,09,02,09,05,15.00
2011,09,02,09,06,15.00
2011,09,02,09,07,15.10
2011,09,02,09,08,15.10
2011,09,02,09,09,15.10
2011,09,02,09,10,15.10
2011,09,02,09,11,15.10
2011,09,02,09,12,15.10
2011,09,02,09,13,15.10
2011,09,02,09,14,15.20
2011,09,02,09,15,15.20
2011,09,02,09,16,15.30
2011,09,02,09,17,15.30
2011,09,02,09,18,15.30
2011,09,02,09,19,15.30
2011,09,02,09,20,15.30
2011,09,02,09,21,15.20
2011,09,02,09,22,15.20
2011,09,02,09,23,15.20
2011,09,02,09,24,15.10
2011,09,02,09,25,15.10
2011,09,02,09,26,15.10
2011,09,02,09,27,15.10
2011,09,02,09,28,15.10
2011,09,02,09,29,15.10
2011,09,02,09,30,15.10
2011,09,02,09,31,15.20
2011,09,02,09,32,15.20
2011,09,02,09,33,15.30
2011,09,02,09,34,15.40
2011,09,02,09,35,15.50
2011,09,02,09,36,15.50
2011,09,02,09,37,15.60
2011,09,02,09,38,15.60
2011,09,02,09,39,15.60
2011,09,02,09,40,15.60
2011,09,02,09,41,15.60
2011,09,02,09,42,15.60
2011,09,02,09,43,15.60
2011,09,02,09,44,15.60
2011,09,02,09,45,15.70
2011,09,02,09,46,15.70
2011,09,02,09,47,15.70
2011,09,02,09,48,15.70
2011,09,02,09,49,15.80
2011,09,02,09,50,15.90
2011,09,02,09,51,16.10
2011,09,02,09,52,16.20
2011,09,02,09,53,16.30
2011,09,02,09,54,16.30
2011,09,02,09,55,16.40
2011,09,02,09,56,16.40
2011,09,02,09,57,16.40
2011,09,02,09,58,16.40
2011,09,02,09,59,16.40
2011,09,02,10,00,16.40
2011,09,02,10,01,16.30
2011,09,02,10,02,16.30
2011,09,02,10,03,16.20
2011,09,02,10,04,16.20
2011,09,02,10,05,16.20
2011,09,02,10,06,16.20
2011,09,02,10,07,16.20
2011,09,02,10,08,16.30
2011,09,02,10,09,16.30
2011,09,02,10,10,16.40
2011,09,02,10,11,16.50
2011,09,02,10,12,16.60
2011,09,02,10,13,16.70
2011,09,02,10,14,16.60
2011,09,02,10,15,16.60
2011,09,02,10,16,16.50
2011,09,02,10,17,16.40
2011,09,02,10,18,16.40
2011,09,02,10,19,16.40
2011,09,02,10,20,16.40
2011,09,02,10,21,16.50
2011,09,02,10,22,16.50
2011,09,02,10,23,16.50
2011,09,02,10,24,16.60
2011,09,02,10,25,16.60
2011,09,02,10,26,16.60
2011,09,02,10,27,16.60
2011,09,02,10,28,16.60
2011,09,02,10,29,16.60
2011,09,02,10,30,16.70
2011,09,02,10,31,16.70
2011,09,02,10,32,16.70
2011,09,02,10,33,16.70
2011,09,02,10,34,16.80
2011,09,02,10,35,16.80
2011,09,02,10,36,16.90
2011,09,02,10,37,16.90
2011,09,02,10,38,16.90
2011,09,02,10,39,16.90
2011,09,02,10,40,16.90
2011,09,02,10,41,16.90
2011,09,02,10,42,17.00
2011,09,02,10,43,16.90
2011,09,02,10,44,17.00
2011,09,02,10,45,17.10
2011,09,02,10,46,17.20
2011,09,02,10,47,17.30
2011,09,02,10,48,17.40
2011,09,02,10,49,17.60
2011,09,02,10,50,17.70
2011,09,02,10,51,17.80
2011,09,02,10,52,17.70
2011,09,02,10,53,17.70
2011,09,02,10,54,17.70
2011,09,02,10,55,17.60
2011,09,02,10,56,17.60
2011,09,02,10,57,17.50
2011,09,02,10,58,17.50
2011,09,02,10,59,17.30
2011,09,02,11,00,17.30
2011,09,02,11,01,17.30
2011,09,02,11,02,17.50
2011,09,02,11,03,17.60
2011,09,02,11,04,17.60
2011,09,02,11,05,17.70
2011,09,02,11,06,17.70
2011,09,02,11,07,17.70
2011,09,02,11,08,17.80
2011,09,02,11,09,17.80
2011,09,02,11,10,17.90
2011,09,02,11,11,18.00
2011,09,02,11,12,18.10
2011,09,02,11,13,18.10
2011,09,02,11,14,18.20
2011,09,02,11,15,18.10
2011,09,02,11,16,18.00
2011,09,02,11,17,17.90
2011,09,02,11,18,17.80
2011,09,02,11,19,17.70
2011,09,02,11,20,17.60
2011,09,02,11,21,17.60
2011,09,02,11,22,17.60
2011,09,02,11,23,17.50
2011,09,02,11,24,17.50
2011,09,02,11,25,17.50
2011,09,02,11,26,17.50
2011,09,02,11,27,17.50
2011,09,02,11,28,17.50
2011,09,02,11,29,17.60
2011,09,02,11,30,17.60
2011,09,02,11,31,17.70
2011,09,02,11,32,17.70
2011,09,02,11,33,17.80
2011,09,02,11,34,17.80
2011,09,02,11,35,18.00
2011,09,02,11,36,18.00
2011,09,02,11,37,18.10
2011,09,02,11,38,18.20
2011,09,02,11,39,18.20
2011,09,02,11,40,18.20
2011,09,02,11,41,18.30
2011,09,02,11,42,18.30
2011,09,02,11,43,18.30
2011,09,02,11,44,18.30
2011,09,02,11,45,18.30
2011,09,02,11,46,18.30
2011,09,02,11,47,18.20
2011,09,02,11,48,18.20
2011,09,02,11,49,18.10
2011,09,02,11,50,18.00
2011,09,02,11,51,18.00
2011,09,02,11,52,17.90
2011,09,02,11,53,18.00
2011,09,02,11,54,18.00
2011,09,02,11,55,17.90
2011,09,02,11,56,17.90
2011,09,02,11,57,18.00
2011,09,02,11,58,18.00
2011,09,02,11,59,18.00
2011,09,02,12,00,18.10
2011,09,02,12,01,18.10
2011,09,02,12,02,18.30
2011,09,02,12,03,18.50
2011,09,02,12,04,18.60
2011,09,02,12,05,18.80
2011,09,02,12,06,18.90
2011,09,02,12,07,19.00
2011,09,02,12,08,18.90
2011,09,02,12,09,18.90
2011,09,02,12,10,18.90
2011,09,02,12,11,18.90
2011,09,02,12,12,18.80
2011,09,02,12,13,18.70
2011,09,02,12,14,18.60
2011,09,02,12,15,18.60
2011,09,02,12,16,18.70
2011,09,02,12,17,18.70
2011,09,02,12,18,18.70
2011,09,02,12,19,18.60
2011,09,02,12,20,18.70
2011,09,02,12,21,18.70
2011,09,02,12,22,18.80
2011,09,02,12,23,18.80
2011,09,02,12,24,18.80
2011,09,02,12,25,18.80
2011,09,02,12,26,18.80
2011,09,02,12,27,18.80
2011,09,02,12,28,18.80
2011,09,02,12,29,18.80
2011,09,02,12,30,18.80
2011,09,02,12,31,18.80
2011,09,02,12,32,18.80
2011,09,02,12,33,18.80
2011,09,02,12,34,18.80
2011,09,02,12,35,18.80
2011,09,02,12,36,18.70
2011,09,02,12,37,18.70
2011,09,02,12,38,18.60
2011,09,02,12,39,18.60
2011,09,02,12,40,18.60
2011,09,02,12,41,18.60
2011,09,02,12,42,18.60
2011,09,02,12,43,18.70
2011,09,02,12,44,18.80
2011,09,02,12,45,18.80
2011,09,02,12,46,18.80
2011,09,02,12,47,18.70
2011,09,02,12,48,18.70
2011,09,02,12,49,18.80
2011,09,02,12,50,18.80
2011,09,02,12,51,18.90
2011,09,02,12,52,19.00
2011,09,02,12,53,19.10
2011,09,02,12,54,19.10
2011,09,02,12,55,19.20
2011,09,02,12,56,19.20
2011,09,02,12,57,19.20
2011,09,02,12,58,19.10
2011,09,02,12,59,19.10
2011,09,02,13,00,19.10
2011,09,02,13,01,19.20
2011,09,02,13,02,19.10
2011,09,02,13,03,19.20
2011,09,02,13,04,19.20
2011,09,02,13,05,19.20
2011,09,02,13,06,19.20
2011,09,02,13,07,19.20
2011,09,02,13,08,19.30
2011,09,02,13,09,19.30
2011,09,02,13,10,19.20
2011,09,02,13,11,19.30
2011,09,02,13,12,19.40
2011,09,02,13,13,19.50
2011,09,02,13,14,19.40
2011,09,02,13,15,19.40
2011,09,02,13,16,19.40
2011,09,02,13,17,19.30
2011,09,02,13,18,19.30
2011,09,02,13,19,19.30
2011,09,02,13,20,19.30
2011,09,02,13,21,19.40
2011,09,02,13,22,19.50
2011,09,02,13,23,19.50
2011,09,02,13,24,19.40
2011,09,02,13,25,19.50
2011,09,02,13,26,19.60
2011,09,02,13,27,19.60
2011,09,02,13,28,19.70
2011,09,02,13,29,19.70
2011,09,02,13,30,19.80
2011,09,02,13,31,19.80
2011,09,02,13,32,19.90
2011,09,02,13,33,20.00
2011,09,02,13,34,20.00
2011,09,02,13,35,19.90
2011,09,02,13,36,19.90
2011,09,02,13,37,19.80
2011,09,02,13,38,19.80
2011,09,02,13,39,19.80
2011,09,02,13,40,19.70
2011,09,02,13,41,19.60
2011,09,02,13,42,19.40
2011,09,02,13,43,19.40
2011,09,02,13,44,19.40
2011,09,02,13,45,19.40
2011,09,02,13,46,19.40
2011,09,02,13,47,19.30
2011,09,02,13,48,19.20
2011,09,02,13,49,19.20
2011,09,02,13,50,19.10
2011,09,02,13,51,19.10
2011,09,02,13,52,19.20
2011,09,02,13,53,19.10
2011,09,02,13,54,19.10
2011,09,02,13,55,19.00
2011,09,02,13,56,18.90
2011,09,02,13,57,18.80
2011,09,02,13,58,18.70
2011,09,02,13,59,18.70
2011,09,02,14,00,18.70
2011,09,02,14,01,18.70
2011,09,02,14,02,18.80
2011,09,02,14,03,18.90
2011,09,02,14,04,19.00
2011,09,02,14,05,19.10
2011,09,02,14,06,19.20
2011,09,02,14,07,19.30
2011,09,02,14,08,19.40
2011,09,02,14,09,19.40
2011,09,02,14,10,19.40
2011,09,02,14,11,19.50
2011,09,02,14,12,19.50
2011,09,02,14,13,19.60
2011,09,02,14,14,19.60
2011,09,02,14,15,19.70
2011,09,02,14,16,19.80
2011,09,02,14,17,19.80
2011,09,02,14,18,19.70
2011,09,02,14,19,19.60
2011,09,02,14,20,19.50
2011,09,02,14,21,19.40
2011,09,02,14,22,19.40
2011,09,02,14,23,19.30
2011,09,02,14,24,19.30
2011,09,02,14,25,19.30
2011,09,02,14,26,19.40
2011,09,02,14,27,19.50
2011,09,02,14,28,19.60
2011,09,02,14,29,19.60
2011,09,02,14,30,19.70
2011,09,02,14,31,19.80
2011,09,02,14,32,19.90
2011,09,02,14,33,19.90
2011,09,02,14,34,19.90
2011,09,02,14,35,20.00
2011,09,02,14,36,20.00
2011,09,02,14,37,19.90
2011,09,02,14,38,19.80
2011,09,02,14,39,19.80
2011,09,02,14,40,19.70
2011,09,02,14,41,19.70
2011,09,02,14,42,19.50
2011,09,02,14,43,19.50
2011,09,02,14,44,19.50
2011,09,02,14,45,19.50
2011,09,02,14,46,19.50
2011,09,02,14,47,19.50
2011,09,02,14,48,19.60
2011,09,02,14,49,19.70
2011,09,02,14,50,19.70
2011,09,02,14,51,19.80
2011,09,02,14,52,19.90
2011,09,02,14,53,20.00
2011,09,02,14,54,20.10
2011,09,02,14,55,20.20
2011,09,02,14,56,20.40
2011,09,02,14,57,20.50
2011,09,02,14,58,20.60
2011,09,02,14,59,20.60
2011,09,02,15,00,20.60
2011,09,02,15,01,20.70
2011,09,02,15,02,20.60
2011,09,02,15,03,20.50
2011,09,02,15,04,20.40
2011,09,02,15,05,20.30
2011,09,02,15,06,20.30
2011,09,02,15,07,20.20
2011,09,02,15,08,20.20
2011,09,02,15,09,20.20
2011,09,02,15,10,20.10
2011,09,02,15,11,20.10
2011,09,02,15,12,20.10
2011,09,02,15,13,20.00
2011,09,02,15,14,20.00
2011,09,02,15,15,20.00
2011,09,02,15,16,20.00
2011,09,02,15,17,19.90
2011,09,02,15,18,19.80
2011,09,02,15,19,19.70
2011,09,02,15,20,19.60
2011,09,02,15,21,19.60
2011,09,02,15,22,19.70
2011,09,02,15,23,19.70
2011,09,02,15,24,19.70
2011,09,02,15,25,19.60
2011,09,02,15,26,19.60
2011,09,02,15,27,19.60
2011,09,02,15,28,19.60
2011,09,02,15,29,19.60
2011,09,02,15,30,19.60
2011,09,02,15,31,19.70
2011,09,02,15,32,19.80
2011,09,02,15,33,19.80
2011,09,02,15,34,19.90
2011,09,02,15,35,19.90
2011,09,02,15,36,19.90
2011,09,02,15,37,19.90
2011,09,02,15,38,19.90
2011,09,02,15,39,19.90
2011,09,02,15,40,20.00
2011,09,02,15,41,20.10
2011,09,02,15,42,20.10
2011,09,02,15,43,20.00
2011,09,02,15,44,20.00
2011,09,02,15,45,19.90
2011,09,02,15,46,19.90
2011,09,02,15,47,19.90
2011,09,02,15,48,19.80
2011,09,02,15,49,19.80
2011,09,02,15,50,19.80
2011,09,02,15,51,19.80
2011,09,02,15,52,19.90
2011,09,02,15,53,19.90
2011,09,02,15,54,19.90
2011,09,02,15,55,19.90
2011,09,02,15,56,19.90
2011,09,02,15,57,19.90
2011,09,02,15,58,19.90
2011,09,02,15,59,20.00
2011,09,02,16,00,20.10
2011,09,02,16,01,20.20
2011,09,02,16,02,20.30
2011,09,02,16,03,20.30
2011,09,02,16,04,20.30
2011,09,02,16,05,20.30
2011,09,02,16,06,20.20
2011,09,02,16,07,20.20
2011,09,02,16,08,20.10
2011,09,02,16,09,20.10
2011,09,02,16,10,20.10
2011,09,02,16,11,20.00
2011,09,02,16,12,19.90
2011,09,02,16,13,19.90
2011,09,02,16,14,19.80
2011,09,02,16,15,19.80
2011,09,02,16,16,19.80
2011,09,02,16,17,19.80
2011,09,02,16,18,19.80
2011,09,02,16,19,19.80
2011,09,02,16,20,19.90
2011,09,02,16,21,19.90
2011,09,02,16,22,19.90
2011,09,02,16,23,19.90
2011,09,02,16,24,20.00
2011,09,02,16,25,20.00
2011,09,02,16,26,20.00
2011,09,02,16,27,20.00
2011,09,02,16,28,20.00
2011,09,02,16,29,20.00
2011,09,02,16,30,20.00
2011,09,02,16,31,20.00
2011,09,02,16,32,20.00
2011,09,02,16,33,20.10
2011,09,02,16,34,20.10
2011,09,02,16,35,20.10
2011,09,02,16,36,20.10
2011,09,02,16,37,20.10
2011,09,02,16,38,20.10
2011,09,02,16,39,20.20
2011,09,02,16,40,20.20
2011,09,02,16,41,20.20
2011,09,02,16,42,20.20
2011,09,02,16,43,20.20
2011,09,02,16,44,20.20
2011,09,02,16,45,20.20
2011,09,02,16,46,20.10
2011,09,02,16,47,20.10
2011,09,02,16,48,20.10
2011,09,02,16,49,20.10
2011,09,02,16,50,20.10
2011,09,02,16,51,20.20
2011,09,02,16,52,20.20
2011,09,02,16,53,20.10
2011,09,02,16,54,20.10
2011,09,02,16,55,20.20
2011,09,02,16,56,20.30
2011,09,02,16,57,20.40
2011,09,02,16,58,20.50
2011,09,02,16,59,20.50
2011,09,02,17,00,20.60
2011,09,02,17,01,20.70
2011,09,02,17,02,20.70
2011,09,02,17,03,20.80
2011,09,02,17,04,20.80
2011,09,02,17,05,20.70
2011,09,02,17,06,20.80
2011,09,02,17,07,20.80
2011,09,02,17,08,20.80
2011,09,02,17,09,20.80
2011,09,02,17,10,20.80
2011,09,02,17,11,20.80
2011,09,02,17,12,20.80
2011,09,02,17,13,20.90
2011,09,02,17,14,20.90
2011,09,02,17,15,20.90
2011,09,02,17,16,20.90
2011,09,02,17,17,20.90
2011,09,02,17,18,20.90
2011,09,02,17,19,20.90